CW7283 Weather Reports


time (UTC)temp
F
wind
direction
speed
knots
gust
knots
rain 1hr
in
rain 24hr
in
rain mn
in
humidity
%
barometer
mb
20260904083335 54 298 0.0 0.0 0.00 0.00 0.00 55 1009.7
20260904081832 54 304 0.0 0.9 0.00 0.00 0.00 55 1009.6
20260904080324 54 263 0.0 0.0 0.00 0.00 0.00 55 1010.0
20260904074826 54 232 0.0 0.0 0.00 0.00 0.00 54 1010.0
20260904073334 55 177 0.0 0.9 0.00 0.00 0.00 56 1010.4
20260904071836 55 244 0.0 0.0 0.00 0.00 0.00 55 1010.1
20260904070352 55 283 0.0 0.0 0.00 0.00 0.00 55 1010.3
20260904064831 55 283 0.0 0.0 0.00 0.00 0.00 55 1010.4
20260904063422 56 283 0.0 0.0 0.00 0.00 0.00 55 1010.5
20260904061849 56 303 0.0 0.0 0.00 0.00 0.00 59 1010.4
20260904060328 56 303 0.0 0.0 0.00 0.00 0.00 56 1010.5
20260904054851 57 304 0.0 0.0 0.00 0.00 0.00 54 1010.6
20260904053337 58 288 0.0 0.0 0.00 0.00 0.00 54 1010.6
20260904051826 58 288 0.0 0.0 0.00 0.00 0.00 51 1010.6
20260904050408 59 288 0.0 0.0 0.00 0.00 0.00 52 1010.6
20260904044848 60 296 0.0 0.0 0.00 0.00 0.00 49 1010.6
20260904043352 61 148 0.0 0.0 0.00 0.00 0.00 47 1010.7
20260904041855 62 219 0.0 0.0 0.00 0.00 0.00 47 1010.8
20260904040344 63 254 0.0 0.0 0.00 0.00 0.00 44 1010.9
20260904034840 65 254 0.0 0.0 0.00 0.00 0.00 41 1010.7
20260904033359 65 237 0.0 0.0 0.00 0.00 0.00 41 1010.7
20260904031844 67 235 0.0 0.0 0.00 0.00 0.00 39 1010.5
20260904030328 68 274 0.0 0.0 0.00 0.00 0.00 37 1010.2
20260904024830 69 247 0.0 0.0 0.00 0.00 0.00 35 1010.1
20260904023345 69 292 0.0 0.0 0.00 0.00 0.00 36 1009.8
20260904021839 70 292 0.0 0.0 0.00 0.00 0.00 34 1009.5
20260904020344 71 338 0.0 0.0 0.00 0.00 0.00 34 1009.5
20260904014837 73 338 0.0 0.0 0.00 0.00 0.00 33 1009.3
20260904013330 75 338 0.0 0.0 0.00 0.00 0.00 31 1009.2
20260904011832 77 9 0.0 0.0 0.00 0.00 0.00 29 1009.0
20260904010337 78 360 0.0 0.0 0.00 0.00 0.00 27 1008.9
20260904004848 79 19 0.0 1.7 0.00 0.00 0.00 26 1008.9
20260904003329 81 24 0.0 1.7 0.00 0.00 0.00 25 1008.8
20260904001839 83 78 0.0 0.0 0.00 0.00 0.00 25 1008.8
20260904000342 83 91 0.0 0.0 0.00 0.00 0.00 25 1008.8
20260903234829 83 347 0.0 1.7 0.00 0.00 0.00 24 1008.8
20260903233355 84 327 0.0 1.7 0.00 0.00 0.00 25 1008.8
20260903231830 85 329 0.0 1.7 0.00 0.00 0.00 24 1008.8
20260903230332 86 80 0.0 1.7 0.00 0.00 0.00 24 1008.8
20260903224823 87 255 0.0 0.0 0.00 0.00 0.00 24 1008.8
20260903223339 86 194 0.0 1.7 0.00 0.00 0.00 24 1008.7
20260903221833 84 313 0.0 0.9 0.00 0.00 0.00 24 1008.7
20260903220352 85 261 0.0 1.7 0.00 0.00 0.00 25 1008.8
20260903214827 84 309 0.0 2.6 0.00 0.00 0.00 22 1008.8
20260903213337 87 330 0.0 1.7 0.00 0.00 0.00 24 1008.8
20260903211835 87 234 0.0 1.7 0.00 0.00 0.00 24 1008.8
20260903210338 86 63 0.0 1.7 0.00 0.00 0.00 23 1008.9
20260903204854 86 317 0.0 1.7 0.00 0.00 0.00 24 1008.9
20260903203340 84 221 0.0 1.7 0.00 0.00 0.00 24 1008.9
20260903201837 84 169 2.6 9.6 0.00 0.00 0.00 24 1009.2
20260903200330 84 71 0.0 3.5 0.00 0.00 0.00 26 1009.3
20260903194845 83 190 0.0 2.6 0.00 0.00 0.00 25 1009.4
20260903193357 82 313 0.0 2.6 0.00 0.00 0.00 27 1009.4
20260903191850 82 44 0.0 1.7 0.00 0.00 0.00 26 1009.5
20260903190338 83 51 0.0 0.9 0.00 0.00 0.00 27 1009.4
20260903184835 83 130 0.0 1.7 0.00 0.00 0.00 28 1009.5
20260903183347 82 17 0.0 1.7 0.00 0.00 0.00 26 1009.6
20260903181832 82 88 0.0 0.9 0.00 0.00 0.00 29 1009.7
20260903180345 82 79 0.0 1.7 0.00 0.00 0.00 29 1009.9
20260903174906 80 112 0.0 2.6 0.00 0.00 0.00 30 1010.1
20260903173341 80 55 0.0 1.7 0.00 0.00 0.00 32 1010.2
20260903171843 79 184 0.0 1.7 0.00 0.00 0.00 32 1010.3
20260903170338 78 191 0.0 3.5 0.00 0.00 0.00 33 1010.4
20260903164854 76 221 0.0 1.7 0.00 0.00 0.00 33 1010.4
20260903163337 74 15 0.0 1.7 0.00 0.00 0.00 40 1010.4
20260903161837 73 336 0.0 1.7 0.00 0.00 0.00 39 1010.5
20260903160333 72 294 0.0 1.7 0.00 0.00 0.00 42 1010.4
20260903154914 70 159 0.0 1.7 0.00 0.00 0.00 43 1010.6
20260903153353 67 142 0.0 1.7 0.00 0.00 0.00 45 1010.6
20260903151834 64 126 0.0 1.7 0.00 0.00 0.00 48 1010.6
20260903150334 61 131 0.0 1.7 0.00 0.00 0.00 52 1010.7
20260903144841 59 132 0.0 0.9 0.00 0.00 0.00 57 1010.7
20260903143351 58 136 0.0 1.7 0.00 0.00 0.00 59 1010.9
20260903141854 57 275 0.0 0.0 0.00 0.00 0.00 61 1011.0
20260903140331 56 275 0.0 0.0 0.00 0.00 0.00 63 1010.8
20260903134834 57 275 0.0 0.0 0.00 0.00 0.00 62 1010.8
20260903133328 57 147 0.0 0.0 0.00 0.00 0.00 60 1010.7
20260903131902 57 147 0.0 0.0 0.00 0.00 0.00 58 1010.5
20260903130353 57 255 0.0 0.0 0.00 0.00 0.00 56 1010.4
20260903124839 58 203 0.0 0.0 0.00 0.00 0.00 56 1010.6
20260903123331 58 203 0.0 0.0 0.00 0.00 0.00 56 1010.5
20260903121839 58 157 0.0 0.0 0.00 0.00 0.00 54 1010.3
20260903120409 58 259 0.0 1.7 0.00 0.00 0.00 54 1010.8
20260903114852 58 210 0.0 1.7 0.00 0.00 0.00 55 1011.0
20260903113339 59 194 0.0 0.9 0.00 0.00 0.00 55 1011.0
20260903111830 60 236 0.0 0.0 0.00 0.00 0.00 53 1010.6
20260903110343 60 236 0.0 0.0 0.00 0.00 0.00 51 1010.7
20260903104859 60 298 0.0 1.7 0.00 0.00 0.00 49 1010.7
20260903103352 60 304 0.0 0.0 0.00 0.00 0.00 48 1010.7
20260903101845 60 304 0.0 0.0 0.00 0.00 0.00 48 1010.4
20260903100337 61 336 0.0 0.0 0.00 0.00 0.00 47 1010.2
20260903094854 62 76 0.0 0.0 0.00 0.00 0.00 46 1010.0
20260903093329 63 347 0.0 0.0 0.00 0.00 0.00 45 1009.5
20260903091827 63 9 0.0 0.0 0.00 0.00 0.00 44 1009.5
20260903090343 63 295 0.0 1.7 0.00 0.00 0.00 43 1009.5
20260903084900 64 303 0.0 0.9 0.00 0.00 0.00 40 1009.7